This is the latest recevied weather packets stored in our database for station/object KF5JED-13. If no packets are shown the sender has not sent any weather packets the latest 10 day(s).
| Time | Temp. | Humidity | Pressure | Rain* | Wind** | Luminosity | Snow |
|---|---|---|---|---|---|---|---|
| 1777659186 | 12.22° C | 58% | 1020.5 hPa | 0 mm | - | 308 W/m² | - |
| 1777658883 | 12.22° C | 59% | 1020.6 hPa | 0 mm | - | 291 W/m² | - |
| 1777658579 | 12.22° C | 59% | 1020.5 hPa | 0 mm | - | 234 W/m² | - |
| 1777658271 | 12.22° C | 59% | 1020.6 hPa | 0 mm | - | 289 W/m² | - |
| 1777657968 | 12.22° C | 59% | 1020.5 hPa | 0 mm | - | 238 W/m² | - |
| 1777657664 | 11.67° C | 58% | 1020.6 hPa | 0 mm | - | 232 W/m² | - |
| 1777657361 | 12.22° C | 58% | 1020.6 hPa | 0 mm | - | 191 W/m² | - |
| 1777657059 | 11.67° C | 58% | 1020.5 hPa | 0 mm | - | 213 W/m² | - |
| 1777656756 | 11.67° C | 58% | 1020.4 hPa | 0 mm | - | 212 W/m² | - |
| 1777656452 | 11.67° C | 58% | 1020.5 hPa | 0 mm | - | 202 W/m² | - |
| 1777656147 | 11.67° C | 58% | 1020.5 hPa | 0 mm | - | 201 W/m² | - |
| 1777655843 | 11.67° C | 58% | 1020.1 hPa | 0 mm | - | 216 W/m² | - |
| 1777655541 | 11.67° C | 58% | 1020.2 hPa | 0 mm | - | 197 W/m² | - |
| 1777655237 | 11.67° C | 58% | 1020.5 hPa | 0 mm | - | 206 W/m² | - |
| 1777654934 | 11.67° C | 58% | 1020.4 hPa | 0 mm | - | 230 W/m² | - |
| 1777654631 | 11.67° C | 58% | 1020.5 hPa | 0 mm | - | 197 W/m² | - |
| 1777654329 | 11.67° C | 59% | 1020.6 hPa | 0 mm | - | 147 W/m² | - |
| 1777654027 | 11.67° C | 59% | 1020.6 hPa | 0 mm | - | 145 W/m² | - |
| 1777653724 | 11.67° C | 59% | 1020.5 hPa | 0 mm | - | 136 W/m² | - |
| 1777653419 | 11.67° C | 59% | 1020.6 hPa | 0 mm | - | 140 W/m² | - |
| 1777653117 | 11.67° C | 58% | 1020.4 hPa | 0 mm | - | 138 W/m² | - |
| 1777652813 | 11.67° C | 59% | 1020.1 hPa | 0 mm | - | 150 W/m² | - |
| 1777652509 | 11.67° C | 59% | 1020.2 hPa | 0 mm | - | 187 W/m² | - |
| 1777652207 | 11.67° C | 59% | 1020 hPa | 0 mm | - | 181 W/m² | - |
| 1777651904 | 11.67° C | 60% | 1020 hPa | 0 mm | - | 242 W/m² | - |
* Rain latest hour (hover to see other rain measurements)
** Current wind speed in m/s (hover to see current wind gust speed)